Regional Weather Roundup
Issued by NWS Sterling, VA

Home | Current Version | Previous Version | Graphics & Text | Print | Product List | Glossary On
Versions: 1 2 3 4 5 6 7 8 9 10 11 12 13 14 15 16 17 18 19 20 21 22 23 24 25 26 27 28 29 30 31 32 33 34 35 36 37 38 39 40 41 42 43 44
000
ASUS41 KLWX 260310
RWRLWX

REGIONAL WEATHER ROUNDUP
NATIONAL WEATHER SERVICE BALTIMORE MD/WASHINGTON DC
1000 PM EST THU DEC 25 2014

Note: "FAIR" indicates few or no clouds below 12,000 feet
with no significant weather and/or obstructions to visibility.
 TC=TEMPERATURE CELSIUS

 * =Non NWS site. Station does not report precipitation (e.g. rain,
    snow, etc.), thunder, or fog.

DCZ001-MDZ009-015-VAZ040>042-051-053>054-260400-
WASHINGTON METRO

CITY           SKY/WX    TMP DP  RH WIND       PRES   REMARKS
WASHINGTON NAT CLEAR     46  29  51 NW7       30.23R
DULLES         CLEAR     40  29  64 W7        30.22R
ANDREWS AFB    CLEAR     42  30  62 W7        30.21R
FT BELVOIR     CLEAR     45  29  54 NW12      30.22R
QUANTICO       CLEAR     43  31  62 CALM      30.24R
COLLEGE PARK*  CLEAR     41  32  70 SW3       30.22R
LEESBURG*      CLEAR     41  32  70 W7        30.23R
MANASSAS*      CLEAR     37  30  75 NW8       30.22R
GAITHERSBURG*  CLEAR     36  28  75 W6        30.24R

$$

MDZ006>007-011-014-260400-
BALTIMORE METRO

CITY           SKY/WX    TMP DP  RH WIND       PRES   REMARKS
BWI AIRPORT    CLEAR     39  30  70 SW5       30.20R
MD SCIENCE CTR   N/A     42  30  62 MISG      30.20R
MARTIN STATE   CLEAR     41  32  70 CALM      30.21R
ANNAPOLIS      CLEAR     43  29  57 W5        30.22R
FORT MEADE*    CLEAR     36  32  87 S5        30.24R

$$

MDZ012-015-019>023-260400-
MARYLAND EASTERN SHORE

CITY           SKY/WX    TMP DP  RH WIND       PRES   REMARKS
OCEAN CITY     CLEAR     42  32  67 NW5       30.20R
SALISBURY      CLEAR     46  31  55 W3        30.21R
BAY BRIDGE AP*   N/A     45  32  61 W9        30.22R
CAMBRIDGE*     CLEAR     41  32  70 CALM      30.21R
EASTON*        CLEAR     44  34  67 NW3       30.24R

$$

MDZ017>025-260400-
SOUTHERN MARYLAND

CITY           SKY/WX    TMP DP  RH WIND       PRES   REMARKS
PATUXENT RIVER CLEAR     42  32  67 NW5       30.23R
ST INIGOES     CLEAR     38  32  79 W3        30.22R
LEONARDTOWN*   CLEAR     43  30  61 CALM      30.23R

$$

MDZ003>005-260400-
NORTH CENTRAL MARYLAND

CITY           SKY/WX    TMP DP  RH WIND       PRES   REMARKS
FREDERICK*     CLEAR     41  28  60 W5        30.23R
HAGERSTOWN APT CLEAR     41  27  57 SW3       30.19R
WESTMINSTER*   CLEAR     37  30  75 W6        30.17R

$$

MDZ501>502-260400-
WESTERN MARYLAND

CITY           SKY/WX    TMP DP  RH WIND       PRES   REMARKS
OAKLAND*       CLOUDY    32  32 100 W9G22     30.16R WCI  24
CUMBERLAND*    MOCLDY    43  30  61 W3        30.26R

$$

VAZ025>031-260400-
SHENANDOAH VALLEY

CITY           SKY/WX    TMP DP  RH WIND       PRES   REMARKS
WINCHESTER*    CLEAR     39  27  60 CALM      30.22R
FRONT ROYAL*   FAIR      36  30  80 CALM      30.21R
LURAY*         FAIR      34  32  93 CALM      30.22R
NEW MARKET*    FAIR      30  27  89 W5        30.23R
STAUNTON*      CLEAR     33  28  80 CALM      30.24R
WAYNESBORO*    FAIR      38  28  68 SW7       30.22R

$$

WVZ021-048>050-054>055-260400-
EASTERN WEST VIRGINIA PANHANDLE

CITY           SKY/WX    TMP DP  RH WIND       PRES   REMARKS
MARTINSBURG    CLEAR     37  26  64 SW5       30.22R
PETERSBURG*    NOT AVBL

$$

VAZ036>039-050-260400-
CENTRAL FOOTHILLS

CITY           SKY/WX    TMP DP  RH WIND       PRES   REMARKS
CHARLOTTESVILL CLEAR     42  29  59 W3        30.22R
CULPEPER*      CLEAR     34  30  86 CALM      30.23R
ORANGE*        CLEAR     32  32 100 CALM      30.24R
GORDONSVILLE*  FAIR      41  30  63 W5        30.21R
WARRENTON*     FAIR      32  32 100 CALM      30.22R

$$

VAZ055>057-260400-
NORTH AND CENTRAL PIEDMONT

CITY           SKY/WX    TMP DP  RH WIND       PRES   REMARKS
FREDERICKSBRG* CLEAR     36  33  88 CALM      30.23R
STAFFORD*      CLEAR     32  32 100 CALM      30.27S

$$

NCZ024-NYZ072-PAZ021-071-VAZ022-071-260400-
OTHER REGIONAL OBSERVATIONS

CITY           SKY/WX    TMP DP  RH WIND       PRES   REMARKS
NEW YORK CITY  CLEAR     46  28  49 W9G16     30.10R
PHILADELPHIA   CLEAR     45  28  51 W14       30.16R
PITTSBURGH     CLOUDY    38  29  70 W8        30.20S
ROANOKE        CLEAR     37  28  70 NE7       30.23F
RICHMOND       CLEAR     43  31  62 NW5       30.22S
RALEIGH        CLEAR     39  33  79 CALM      30.25R

$$

ANZ530>537-260400-
MARINE OBSERVATIONS

STATION/POSITION TIME  TEMP    WIND        PRES
                       AIR SEA DIR/SP/G
                 (UTC) (F)     (DEG/KT/KT) (MB)
THOMAS PT LIGHT  0300   45 43  310/  9/ 10 1024.4R
BALT KEY BRIDGE  0300   43     230/  7/  7 1022.5R
COVE POINT       0300   45     330/  7/  8 1023.2R
LEWISETTA        0300   41 45     CALM     1023.4R
SOLOMONS ISLAND  0300      44                N/A
PINEY POINT      0300          360/  1/  2   N/A

$$



USA.gov is the U.S. government's official web portal to all federal, state and local government web resources and services.